TimeCDT,TemperatureF,Dew PointF,Humidity,Sea Level PressureIn,VisibilityMPH,Wind Direction,Wind SpeedMPH,Gust SpeedMPH,PrecipitationIn,Events,Conditions,WindDirDegrees,DateUTC
12:12 AM,62.6,44.1,51,29.87,10.0,South,12.7,18.4,N/A,,Clear,170,2013-10-09 05:12:00
12:33 AM,61.7,44.6,53,29.88,10.0,South,11.5,18.4,N/A,,Clear,170,2013-10-09 05:33:00
12:53 AM,61.2,44.6,54,29.88,10.0,South,11.5,18.4,N/A,,Clear,170,2013-10-09 05:53:00
1:13 AM,60.4,44.8,56,29.89,10.0,South,11.5,17.3,N/A,,Clear,170,2013-10-09 06:13:00
1:33 AM,60.3,45.1,57,29.89,10.0,South,10.4,-,N/A,,Clear,170,2013-10-09 06:33:00
1:53 AM,60.1,45.1,58,29.90,10.0,South,9.2,19.6,N/A,,Clear,170,2013-10-09 06:53:00
2:12 AM,59.9,45.1,58,29.90,10.0,South,11.5,-,N/A,,Clear,170,2013-10-09 07:12:00
2:33 AM,59.4,45.1,59,29.90,10.0,South,9.2,16.1,N/A,,Clear,180,2013-10-09 07:33:00
2:53 AM,59.0,45.5,61,29.91,10.0,South,10.4,17.3,N/A,,Clear,170,2013-10-09 07:53:00
3:12 AM,58.5,45.5,62,29.91,10.0,South,9.2,17.3,N/A,,Clear,180,2013-10-09 08:12:00
3:32 AM,58.3,45.5,62,29.91,10.0,South,10.4,-,N/A,,Clear,170,2013-10-09 08:32:00
3:53 AM,58.1,45.5,63,29.91,10.0,South,10.4,-,N/A,,Clear,170,2013-10-09 08:53:00
4:13 AM,57.4,45.5,65,29.92,10.0,South,9.2,-,N/A,,Clear,180,2013-10-09 09:13:00
4:32 AM,57.0,45.5,65,29.92,10.0,South,8.1,-,N/A,,Clear,170,2013-10-09 09:32:00
4:53 AM,56.5,45.5,67,29.93,10.0,South,9.2,-,N/A,,Clear,170,2013-10-09 09:53:00
5:13 AM,55.9,45.7,68,29.93,10.0,South,8.1,-,N/A,,Clear,170,2013-10-09 10:13:00
5:32 AM,55.4,45.9,70,29.93,10.0,South,8.1,-,N/A,,Clear,170,2013-10-09 10:32:00
5:53 AM,55.0,45.7,71,29.93,10.0,South,6.9,-,N/A,,Clear,170,2013-10-09 10:53:00
6:12 AM,54.7,45.7,72,29.94,10.0,SSE,8.1,-,N/A,,Clear,160,2013-10-09 11:12:00
6:33 AM,54.3,45.9,73,29.94,10.0,SSE,6.9,-,N/A,,Clear,160,2013-10-09 11:33:00
6:53 AM,54.0,46.0,75,29.94,10.0,South,8.1,-,N/A,,Clear,170,2013-10-09 11:53:00
7:13 AM,53.8,46.0,75,29.95,10.0,South,9.2,-,N/A,,Clear,170,2013-10-09 12:13:00
7:32 AM,53.6,46.2,76,29.95,10.0,SSE,9.2,-,N/A,,Clear,160,2013-10-09 12:32:00
7:53 AM,53.6,46.4,77,29.96,10.0,South,9.2,-,N/A,,Clear,170,2013-10-09 12:53:00
8:12 AM,54.0,46.4,76,29.96,10.0,South,8.1,-,N/A,,Clear,170,2013-10-09 13:12:00
8:33 AM,54.5,46.4,74,29.97,10.0,South,10.4,16.1,N/A,,Clear,170,2013-10-09 13:33:00
8:52 AM,55.8,46.8,72,29.97,10.0,South,8.1,-,N/A,,Clear,170,2013-10-09 13:52:00
9:12 AM,56.8,46.9,69,29.97,10.0,South,9.2,-,N/A,,Clear,180,2013-10-09 14:12:00
9:33 AM,58.3,47.3,67,29.98,10.0,South,8.1,-,N/A,,Clear,180,2013-10-09 14:33:00
9:52 AM,60.1,47.5,63,29.98,10.0,SSW,9.2,-,N/A,,Clear,200,2013-10-09 14:52:00
10:13 AM,60.8,47.5,62,29.99,10.0,South,9.2,16.1,N/A,,Clear,180,2013-10-09 15:13:00
10:32 AM,61.5,48.0,61,29.99,10.0,SW,10.4,-,N/A,,Clear,220,2013-10-09 15:32:00
11:13 AM,63.7,48.2,57,30.00,10.0,SSW,9.2,-,N/A,,Clear,210,2013-10-09 16:13:00
11:32 AM,64.9,48.4,55,30.00,10.0,SSW,6.9,-,N/A,,Clear,210,2013-10-09 16:32:00
11:53 AM,65.7,48.7,54,30.00,10.0,South,5.8,-,N/A,,Clear,180,2013-10-09 16:53:00
12:13 PM,66.2,48.4,53,30.00,10.0,SSW,5.8,-,N/A,,Clear,210,2013-10-09 17:13:00
12:33 PM,67.1,48.6,51,30.00,10.0,SSE,6.9,-,N/A,,Clear,160,2013-10-09 17:33:00
12:53 PM,67.5,48.9,51,30.00,10.0,South,6.9,-,N/A,,Clear,180,2013-10-09 17:53:00
1:13 PM,68.2,48.9,50,30.00,10.0,South,6.9,-,N/A,,Clear,170,2013-10-09 18:13:00
1:33 PM,69.8,48.9,47,29.99,10.0,South,3.5,-,N/A,,Clear,190,2013-10-09 18:33:00
1:52 PM,70.3,49.1,47,29.99,10.0,South,9.2,-,N/A,,Clear,180,2013-10-09 18:52:00
2:13 PM,71.1,48.2,44,29.98,10.0,South,8.1,-,N/A,,Clear,170,2013-10-09 19:13:00
2:33 PM,72.0,48.6,43,29.98,10.0,South,9.2,-,N/A,,Clear,180,2013-10-09 19:33:00
2:52 PM,73.0,47.7,40,29.98,10.0,SSE,8.1,-,N/A,,Clear,150,2013-10-09 19:52:00
3:13 PM,74.5,47.7,39,29.97,10.0,SSE,8.1,-,N/A,,Clear,160,2013-10-09 20:13:00
3:33 PM,74.7,48.4,39,29.97,10.0,SSE,9.2,-,N/A,,Clear,160,2013-10-09 20:33:00
3:52 PM,75.4,48.0,38,29.97,10.0,SSE,9.2,-,N/A,,Clear,150,2013-10-09 20:52:00
4:13 PM,74.8,48.0,39,29.97,10.0,SSE,9.2,-,N/A,,Clear,160,2013-10-09 21:13:00
4:32 PM,74.3,48.6,40,29.97,10.0,SE,9.2,-,N/A,,Clear,140,2013-10-09 21:32:00
4:53 PM,74.3,47.8,39,29.97,10.0,SSE,10.4,-,N/A,,Clear,160,2013-10-09 21:53:00
5:12 PM,73.8,48.6,41,29.97,10.0,SE,6.9,-,N/A,,Clear,140,2013-10-09 22:12:00
5:33 PM,73.4,48.0,41,29.97,10.0,SSE,9.2,-,N/A,,Clear,150,2013-10-09 22:33:00
5:53 PM,72.1,48.2,43,29.97,10.0,SSE,6.9,-,N/A,,Clear,150,2013-10-09 22:53:00
6:12 PM,71.4,48.2,44,29.97,10.0,SSE,3.5,-,N/A,,Clear,150,2013-10-09 23:12:00
6:33 PM,69.3,48.9,48,29.97,10.0,ESE,3.5,-,N/A,,Clear,120,2013-10-09 23:33:00
6:52 PM,68.2,49.1,50,29.97,10.0,ESE,4.6,-,N/A,,Clear,120,2013-10-09 23:52:00
7:13 PM,66.7,49.1,53,29.97,10.0,ESE,4.6,-,N/A,,Clear,120,2013-10-10 00:13:00
7:33 PM,66.2,49.1,54,29.97,7.0,ESE,3.5,-,N/A,,Clear,120,2013-10-10 00:33:00
7:52 PM,66.2,48.7,53,29.98,10.0,East,3.5,-,N/A,,Clear,100,2013-10-10 00:52:00
8:12 PM,64.8,48.2,55,29.98,10.0,ESE,5.8,-,N/A,,Clear,120,2013-10-10 01:12:00
8:33 PM,64.2,47.5,55,29.98,5.0,ESE,6.9,-,N/A,,Haze,120,2013-10-10 01:33:00
8:53 PM,64.0,47.3,54,29.98,10.0,SE,5.8,-,N/A,,Clear,130,2013-10-10 01:53:00
9:13 PM,63.7,47.3,55,29.99,10.0,SE,5.8,-,N/A,,Clear,130,2013-10-10 02:13:00
9:33 PM,62.6,47.5,58,29.99,10.0,SE,5.8,-,N/A,,Clear,140,2013-10-10 02:33:00
9:52 PM,61.7,47.3,59,29.99,10.0,SE,6.9,-,N/A,,Clear,130,2013-10-10 02:52:00
10:13 PM,61.0,47.3,61,29.99,10.0,SE,5.8,-,N/A,,Clear,130,2013-10-10 03:13:00
10:33 PM,59.9,47.3,63,30.00,10.0,SSE,4.6,-,N/A,,Clear,150,2013-10-10 03:33:00
10:52 PM,59.9,46.4,61,30.01,10.0,SSE,4.6,-,N/A,,Clear,150,2013-10-10 03:52:00
11:12 PM,59.0,46.4,63,30.01,10.0,SE,4.6,-,N/A,,Clear,130,2013-10-10 04:12:00
11:33 PM,57.6,46.9,68,30.01,10.0,ESE,4.6,-,N/A,,Clear,120,2013-10-10 04:33:00
11:53 PM,57.2,47.3,69,30.01,10.0,SE,5.8,-,N/A,,Clear,130,2013-10-10 04:53:00